GFSSE_925_thetae_333.txt.gz
Theta_e
333 333 334 333 331 329 329 327 324 320 319 318 319 320 322 323 325 325 326 330 330 332 335 335 335 335 335 333 332 334 331 333 333 333 332 331 334 335 335 330 326 328 328
334 333 333 332 329 327 325 321 319 318 321 322 322 322 321 319 318 320 322 325 328 330 332 333 333 333 333 332 332 332 333 329 329 332 331 330 331 334 335 329 326 329 328
333 332 331 330 328 325 319 316 317 319 320 320 320 319 318 318 317 318 316 314 318 321 326 329 331 331 332 331 331 332 331 331 328 328 327 328 331 334 335 329 327 330 328
333 331 330 328 325 320 317 316 318 319 318 318 317 317 316 315 315 315 314 314 312 314 317 321 327 328 329 330 331 331 331 331 330 328 326 327 329 334 333 331 331 330 328
331 330 328 325 322 319 318 318 318 318 317 317 316 315 314 313 313 312 312 312 312 311 313 315 318 323 325 327 329 331 331 330 331 329 328 329 329 332 333 333 332 325 324
330 329 326 321 320 319 318 317 317 317 316 315 314 313 312 311 310 311 311 311 311 312 313 314 315 316 321 324 325 327 330 331 330 330 329 329 329 330 334 333 324 326 326
328 326 322 320 319 318 317 317 316 315 314 313 310 307 309 310 310 310 310 310 311 311 311 312 313 314 315 317 322 323 326 329 331 330 330 328 329 329 333 333 330 327 328
326 324 319 318 316 316 316 316 315 314 311 305 305 308 309 309 309 308 308 307 308 309 310 311 311 311 312 314 315 319 322 325 329 330 330 329 328 329 332 333 329 323 327
324 321 318 316 313 313 313 312 312 308 304 304 305 305 305 303 302 303 302 303 308 309 310 311 311 311 310 311 312 314 317 319 325 329 330 330 329 329 331 333 324 322 328
322 320 317 315 311 309 308 306 304 303 304 306 307 307 306 303 301 301 302 303 309 309 309 310 311 311 312 312 310 308 309 314 322 326 329 330 330 329 329 331 325 325 330
319 318 316 313 309 307 305 304 303 304 307 307 307 306 305 302 301 301 302 303 304 306 308 309 310 311 311 310 310 309 303 302 313 324 326 329 329 330 331 331 327 329 329
318 317 316 312 309 308 309 306 306 307 308 308 307 306 303 301 301 303 304 305 306 306 307 307 308 309 309 310 312 313 312 311 302 311 325 327 329 330 330 330 329 325 324
319 318 316 313 310 310 309 307 308 308 308 308 306 304 302 302 304 304 304 304 306 306 306 307 307 307 308 309 312 313 312 313 313 305 319 325 327 329 331 330 328 326 327
318 318 316 313 311 310 309 307 309 308 308 307 305 302 301 304 304 304 304 304 305 306 306 306 307 308 308 309 310 311 312 315 320 313 312 324 327 329 329 329 329 328 326
317 317 316 313 311 310 308 308 309 308 308 306 303 301 304 303 303 303 304 304 305 306 306 307 308 309 309 309 310 313 315 318 320 323 318 323 326 327 329 329 330 325 324
318 317 315 312 311 310 309 309 309 308 307 303 301 304 304 303 302 304 304 305 306 308 308 307 309 311 309 310 311 314 315 318 319 323 319 320 325 326 326 330 327 325 326
319 318 315 313 311 311 310 310 309 308 304 301 303 304 303 303 304 304 305 306 308 307 307 309 309 310 310 310 312 313 315 317 317 320 323 323 322 326 326 330 325 325 326
320 318 315 313 311 311 310 309 308 305 301 303 304 304 303 303 305 306 306 308 308 308 309 310 309 310 311 312 313 315 316 317 318 318 321 323 323 325 326 327 324 326 325
320 318 314 312 311 311 310 308 306 301 301 304 304 304 304 305 305 306 307 308 307 308 309 311 310 310 309 310 311 313 314 316 317 319 323 324 325 325 326 324 326 325 324
318 317 314 312 311 310 308 306 302 302 304 304 304 303 305 305 305 306 308 308 308 309 309 311 310 310 310 310 310 313 314 317 318 318 321 322 324 325 325 325 325 324 324
315 314 313 312 310 310 307 303 301 303 304 304 304 304 305 305 306 306 307 308 309 309 309 311 311 311 311 312 311 311 310 313 315 317 319 322 324 325 325 324 323 323 324
313 313 312 312 310 308 306 302 301 303 304 304 304 305 305 305 306 307 307 308 309 310 309 311 311 311 312 311 311 311 311 311 310 311 314 319 322 323 323 323 323 323 323
312 312 311 310 308 306 303 302 301 303 303 303 304 305 305 305 306 306 307 308 309 310 310 310 312 312 312 311 310 310 311 310 307 306 309 315 317 321 321 322 321 322 320
311 310 310 308 307 304 302 300 300 302 303 304 304 304 304 305 306 306 306 308 310 310 311 311 313 312 311 310 310 310 309 309 308 308 306 309 313 315 319 320 319 317 319
309 309 308 307 304 303 300 300 302 304 304 304 303 304 304 305 306 306 306 309 310 312 311 311 313 312 312 311 310 309 309 309 309 308 308 308 308 307 312 319 319 318 317
308 307 307 305 303 301 300 300 302 303 304 303 303 304 304 305 306 305 306 309 310 311 311 313 313 312 311 310 310 310 310 310 307 307 306 304 304 304 308 310 312 312 314

GFSSE_925_thetae_336.txt.gz
Theta_e
332 333 334 333 334 333 332 330 327 325 322 322 322 323 324 324 324 324 325 328 329 330 334 334 334 334 334 333 332 335 333 333 331 331 332 331 330 333 335 329 325 327 329
331 333 334 332 331 329 327 325 321 321 322 321 322 321 321 320 320 321 319 319 323 326 329 331 333 333 333 333 331 332 333 331 332 332 332 330 331 333 333 329 325 329 329
332 333 332 331 329 327 325 321 321 321 321 320 319 318 318 317 317 316 316 316 316 317 322 325 329 331 330 331 331 331 332 332 329 328 330 331 330 332 332 329 325 330 329
333 332 330 330 328 325 322 320 319 319 319 318 318 317 316 315 315 314 314 314 314 314 315 317 321 326 328 327 330 331 331 331 331 328 327 328 329 329 333 331 330 331 329
332 330 329 328 325 323 320 317 318 318 317 317 316 315 314 313 312 312 312 312 313 313 315 315 316 317 322 324 327 329 331 330 330 330 328 327 329 329 334 332 332 331 329
331 330 329 325 323 321 317 318 318 317 316 315 314 312 311 311 311 311 311 311 312 312 312 313 314 315 315 317 322 325 327 329 331 330 330 328 329 328 333 333 331 328 326
330 329 326 322 321 318 318 318 317 316 314 312 311 310 309 309 308 310 310 309 310 310 311 312 313 313 313 315 316 319 323 325 329 330 330 330 329 328 332 333 330 323 324
328 326 322 320 319 317 318 317 316 314 312 306 305 305 305 305 305 307 307 307 309 310 311 312 312 312 312 312 313 314 316 320 324 329 330 330 329 328 330 332 331 322 318
326 324 320 318 316 315 315 313 312 309 304 304 305 305 305 304 302 301 301 302 309 310 311 311 311 312 312 313 312 312 313 315 317 324 328 330 330 328 330 332 332 324 321
323 320 318 316 314 312 309 307 305 303 303 306 306 306 305 303 301 301 301 302 308 309 309 310 311 311 312 312 313 313 307 308 312 316 324 327 330 329 329 330 327 324 323
321 319 317 315 312 309 306 305 303 303 306 307 307 306 305 302 300 301 303 304 305 306 307 309 310 311 309 309 309 309 309 306 302 307 319 324 329 330 330 330 325 324 327
319 318 316 314 310 307 306 305 304 306 307 307 307 306 303 301 303 304 304 304 305 306 306 307 307 307 307 308 309 312 312 311 310 304 313 322 327 329 330 330 326 327 328
319 317 316 313 309 308 308 306 306 307 308 307 306 304 301 303 303 303 303 304 305 306 305 306 306 307 307 308 308 310 311 311 311 310 303 315 325 327 330 330 328 328 326
318 318 316 312 310 310 309 307 308 308 308 307 305 302 303 303 302 303 303 304 305 306 307 306 307 308 309 308 308 309 310 311 314 317 311 307 324 326 329 330 330 327 326
318 318 316 313 311 310 309 307 308 308 307 306 302 302 304 302 301 303 304 305 306 308 307 307 308 310 310 309 310 312 312 315 317 319 321 307 323 325 328 329 330 329 326
318 318 316 313 312 310 309 308 308 308 307 304 301 304 303 302 303 304 305 307 308 307 308 309 309 309 310 310 310 313 314 315 317 320 320 318 322 325 327 327 330 326 322
318 317 316 313 311 310 309 309 308 308 305 301 303 304 303 303 304 306 306 307 307 308 308 309 309 309 310 310 311 313 313 315 316 318 322 319 322 324 325 326 326 322 322
318 317 315 313 311 310 309 309 308 306 302 301 304 304 303 304 305 306 308 307 307 308 309 311 309 309 309 309 311 313 314 315 316 317 319 321 322 323 325 326 325 324 323
319 317 315 312 311 310 309 308 306 303 301 303 304 303 304 305 305 306 308 308 308 308 309 311 310 309 310 310 311 312 313 314 315 318 320 323 323 324 325 325 324 324 325
318 318 315 312 311 310 309 307 304 301 303 304 303 303 305 305 305 306 307 308 308 309 309 311 311 310 311 312 311 311 313 314 316 317 318 320 325 325 325 324 323 325 324
317 316 313 311 310 310 307 304 302 302 303 304 303 304 305 305 306 306 307 308 310 310 309 311 311 311 312 311 312 312 312 312 314 315 318 319 323 325 321 324 323 324 324
314 314 312 311 310 309 307 304 301 302 303 304 303 304 304 305 305 306 307 308 310 310 309 310 311 311 311 311 310 311 311 311 310 310 315 318 320 322 321 321 324 323 323
312 312 312 311 310 307 305 302 301 302 303 303 304 304 304 305 305 306 307 308 310 310 310 311 311 310 310 309 310 310 312 310 308 308 309 313 317 321 321 321 320 319 318
311 311 311 310 308 306 303 301 300 301 302 303 304 304 304 305 305 306 306 308 310 311 310 311 312 312 310 310 309 309 309 309 309 310 308 308 313 317 318 319 318 317 316
310 311 310 308 306 304 302 300 300 302 304 304 303 303 304 305 305 306 306 308 310 311 311 310 312 311 311 310 310 309 309 309 310 309 309 307 308 308 316 317 316 315 314
308 308 307 306 304 302 300 300 301 302 303 303 303 303 304 305 305 305 306 309 310 311 311 311 312 312 310 310 310 310 310 309 308 308 306 304 303 303 307 311 311 313 313

GFSSE_925_thetae_339.txt.gz
Theta_e
331 333 333 333 333 333 332 330 327 325 324 324 324 323 323 323 323 323 322 324 326 327 330 333 334 333 333 332 331 334 335 332 331 330 332 332 330 330 333 327 326 328 329
331 333 333 332 333 332 329 325 322 321 323 323 322 320 320 319 319 318 317 314 318 322 326 328 330 332 331 332 331 331 332 333 331 332 331 331 330 331 335 328 325 329 329
332 333 332 331 330 327 324 320 321 322 321 320 319 318 317 317 316 316 316 316 316 316 318 320 324 328 330 329 330 331 332 332 331 329 331 332 332 330 334 329 326 330 329
332 332 330 330 328 326 323 321 321 320 319 318 317 316 315 315 314 314 314 314 314 315 316 317 318 319 324 326 327 330 330 330 330 330 329 329 330 329 334 331 329 331 330
332 330 329 329 326 324 319 319 319 318 317 317 315 314 313 313 312 313 313 313 314 314 315 315 316 316 316 320 322 325 329 330 330 330 330 327 327 329 333 333 331 331 329
331 329 328 327 324 322 319 319 318 317 316 315 313 312 312 312 312 312 312 311 312 312 313 314 314 314 315 315 317 319 324 327 329 330 330 329 327 328 332 331 330 330 329
330 328 327 324 323 320 319 318 317 316 314 312 311 312 312 311 311 310 310 310 310 312 312 313 314 314 313 313 314 315 318 321 325 327 330 330 329 327 330 332 330 329 329
329 328 325 322 320 318 318 317 316 314 311 307 309 308 306 304 304 305 307 308 310 312 312 313 313 313 313 314 313 313 314 315 318 323 327 329 330 328 328 332 330 327 327
328 326 322 320 317 316 314 313 312 308 305 305 305 306 305 304 302 300 300 303 309 310 311 311 312 312 313 313 314 314 312 311 310 315 322 326 329 329 328 330 332 328 329
325 323 320 318 316 313 311 309 306 304 304 306 306 306 305 303 300 300 302 303 308 309 310 310 311 311 311 311 308 308 309 308 306 305 313 322 326 329 329 331 331 326 318
323 321 319 316 314 311 308 306 304 303 306 307 307 306 304 301 302 303 303 304 304 305 306 307 308 309 307 307 307 309 310 311 310 305 303 312 323 327 329 329 330 325 324
321 319 317 315 312 308 306 305 303 305 306 307 307 305 302 302 303 303 303 304 304 305 305 305 306 306 307 307 307 308 310 311 311 309 306 305 318 324 329 330 328 324 324
321 319 317 314 311 307 306 305 305 306 307 307 306 304 300 303 302 302 303 304 305 306 307 307 306 307 309 309 308 308 309 310 310 310 308 303 314 323 327 330 328 325 328
320 318 316 314 310 307 308 306 307 307 307 307 305 301 303 302 301 303 304 305 307 307 307 307 308 309 309 309 309 310 311 311 311 313 316 308 309 322 325 329 329 328 328
319 318 316 314 311 309 309 307 307 308 307 306 302 302 303 302 303 304 306 307 307 308 308 309 308 309 309 310 310 310 313 314 316 316 318 319 307 319 325 329 330 329 327
319 318 316 314 311 310 309 307 308 308 307 304 301 303 303 302 304 305 307 307 307 308 309 309 308 308 309 310 310 312 313 315 316 317 320 315 309 322 324 326 328 326 322
319 318 317 314 312 311 309 307 308 307 306 301 302 304 302 303 305 306 308 307 308 308 309 309 309 309 309 309 310 313 314 315 314 317 321 320 321 323 325 326 328 323 322
318 318 316 314 312 310 308 308 308 307 303 301 303 303 303 305 305 306 308 308 308 309 309 311 309 309 310 310 311 312 312 314 315 318 320 320 322 323 324 325 319 322 323
319 317 316 314 311 309 308 308 307 305 301 303 303 302 304 305 305 306 307 308 309 309 309 311 310 311 311 312 311 312 313 314 315 316 318 320 321 323 323 322 320 323 323
318 317 316 312 310 309 308 307 305 302 302 303 303 303 305 305 305 306 307 309 309 309 309 311 311 311 311 311 311 311 312 313 316 318 319 319 323 323 323 324 323 324 324
316 316 314 311 309 309 307 305 303 302 302 303 303 303 305 305 306 306 308 309 310 310 309 310 311 311 311 310 312 312 311 312 313 315 318 320 321 323 323 324 324 324 325
315 315 312 311 310 309 308 306 303 302 302 303 303 304 304 305 305 306 307 309 310 309 310 311 311 310 310 309 309 312 313 312 310 310 314 318 320 322 322 321 324 324 321
313 313 312 311 310 308 307 305 302 302 302 303 303 304 304 305 305 306 307 309 310 309 309 311 311 310 310 310 309 310 314 313 309 308 309 315 318 319 321 321 321 319 317
312 312 311 310 309 308 306 303 301 301 302 302 303 304 304 304 305 306 307 309 310 310 310 310 311 311 310 309 309 309 310 311 311 312 309 308 315 316 316 316 316 315 315
311 310 310 309 308 307 304 302 300 300 302 304 303 303 304 304 305 305 307 310 310 310 311 310 311 311 310 310 310 309 310 310 311 311 308 308 307 308 313 314 314 313 312
309 309 308 308 306 305 303 301 300 302 303 304 302 303 304 304 305 305 307 309 309 310 311 311 311 310 310 310 310 311 311 311 309 308 306 303 303 303 309 311 311 313 313

GFSSE_925_thetae_342.txt.gz
Theta_e
333 335 334 333 334 333 332 330 328 325 325 324 324 322 322 322 321 317 317 317 320 324 328 331 332 333 333 333 332 332 334 333 332 330 331 332 331 331 335 329 324 328 329
333 335 333 332 333 332 329 327 323 322 320 320 319 320 319 319 319 318 314 315 316 318 322 325 328 330 331 330 331 331 332 332 331 331 331 330 331 331 335 328 326 329 330
334 336 333 332 332 329 326 324 321 319 318 319 319 318 317 317 316 316 316 316 316 317 318 319 321 323 326 329 328 331 331 331 332 330 332 333 334 330 332 330 325 330 331
334 334 331 331 329 327 324 321 320 319 319 318 318 316 315 315 315 314 314 315 315 316 317 317 318 318 319 322 325 328 330 330 331 331 331 332 333 331 334 333 326 331 331
334 331 330 329 327 325 322 319 317 319 318 317 315 314 314 314 313 314 314 314 314 314 315 315 316 316 316 317 319 322 326 328 329 331 332 333 333 332 334 333 331 332 330
332 330 329 328 325 323 320 319 318 318 316 315 313 314 314 314 313 313 313 312 312 313 314 315 315 315 315 315 315 317 318 323 326 330 331 332 332 331 332 333 332 331 328
331 329 327 327 324 321 320 319 318 316 314 312 313 313 312 311 311 311 311 311 312 313 314 314 314 315 315 315 315 314 315 317 321 324 328 331 332 331 331 332 330 329 327
330 328 327 324 321 319 319 318 317 314 311 312 312 308 306 304 304 304 302 307 311 312 313 313 313 314 314 314 315 315 315 313 313 319 324 327 330 330 330 332 332 328 327
329 328 326 323 320 317 316 314 313 310 306 306 306 306 305 304 301 300 301 306 311 311 311 312 312 313 313 313 313 313 311 313 312 311 318 322 326 329 329 331 331 329 330
327 326 324 321 319 318 316 311 308 304 304 306 306 306 305 302 300 304 304 304 307 309 310 311 311 311 311 309 307 307 308 308 311 310 310 316 322 326 330 330 328 331 329
325 323 321 319 318 316 314 310 306 303 306 307 307 306 304 304 305 305 303 303 304 305 305 305 306 306 306 307 307 307 308 312 312 311 310 308 314 323 328 330 330 331 329
324 322 320 318 316 314 310 308 305 305 307 307 307 305 303 305 303 302 303 304 305 306 307 307 307 307 309 311 311 310 310 311 312 312 311 309 303 316 325 329 329 329 327
324 321 318 316 314 311 308 307 307 307 307 307 306 303 303 305 304 305 306 307 308 308 309 309 310 310 311 311 311 311 310 311 311 312 312 310 303 311 322 329 330 328 324
323 321 318 315 312 309 308 307 308 309 307 307 305 301 305 304 305 306 307 308 309 310 310 311 310 310 311 311 312 312 313 314 313 314 315 315 305 310 317 328 329 329 327
322 320 318 315 312 308 308 307 308 308 307 306 304 303 304 305 306 307 309 309 309 310 311 310 310 310 311 309 311 313 313 316 317 317 317 318 314 310 319 327 329 330 327
322 320 318 315 311 309 309 308 308 308 307 304 304 304 303 305 307 308 309 309 309 310 311 309 311 311 310 311 312 313 313 315 316 317 321 321 315 310 318 325 327 329 327
321 320 317 315 312 310 309 308 308 307 306 304 304 304 303 305 307 308 309 310 310 310 311 312 312 311 312 313 313 312 313 315 317 318 317 318 317 319 323 325 325 321 324
321 319 317 314 312 310 309 307 308 307 304 304 305 304 304 306 306 308 309 310 310 310 311 313 312 312 313 312 311 312 314 314 315 317 318 321 323 321 322 324 324 319 322
320 319 316 314 312 310 308 308 308 306 303 303 305 305 305 306 306 308 309 310 309 310 312 313 313 313 313 312 311 312 312 314 317 317 318 321 322 325 325 323 322 321 324
319 318 316 313 311 309 308 308 307 304 302 304 305 305 305 306 306 308 309 310 309 311 312 312 313 313 311 312 312 311 311 313 315 317 320 321 324 323 322 322 322 323 322
318 317 314 311 309 309 307 306 305 305 304 305 304 303 305 305 306 308 309 310 309 311 312 312 313 313 313 312 314 313 312 311 313 315 318 322 323 321 319 320 322 324 322
317 315 312 310 309 308 308 306 305 304 304 305 304 304 304 305 306 306 308 310 309 309 311 313 313 313 313 312 313 315 317 314 311 310 317 319 320 322 322 323 323 323 321
315 314 311 309 309 308 307 306 303 301 302 304 304 305 304 305 306 306 308 309 310 309 310 313 313 312 313 313 312 314 318 315 310 309 310 316 318 320 321 321 319 319 318
314 313 311 308 308 308 308 305 303 304 304 305 305 305 304 305 306 306 308 309 310 310 310 313 313 312 313 314 313 312 313 313 312 313 310 309 315 314 316 317 316 315 314
311 311 309 308 307 307 307 304 303 302 303 304 304 304 304 305 305 306 309 309 310 310 311 312 313 312 312 313 314 313 314 314 313 312 310 312 309 312 313 313 313 313 313
310 309 308 307 306 306 305 303 301 302 304 305 304 304 305 305 305 305 309 309 310 310 311 311 312 311 312 313 313 314 315 316 313 309 307 307 306 304 311 312 312 313 314

GFSSE_925_thetae_345.txt.gz
Theta_e
334 338 335 335 334 333 332 330 328 326 325 325 322 322 321 321 321 320 318 319 320 322 325 328 331 333 333 333 335 333 333 333 333 331 333 331 331 331 334 331 323 331 327
334 336 334 333 333 332 330 327 324 323 323 322 321 320 319 319 318 318 318 317 318 319 320 321 324 326 329 330 331 332 332 333 332 332 331 330 331 331 333 331 324 330 328
334 335 332 332 332 331 327 324 323 321 321 320 319 318 317 317 316 316 316 316 317 318 318 319 319 320 322 324 328 329 330 331 332 331 332 333 334 331 332 332 326 331 330
334 335 332 331 331 327 324 322 321 321 320 319 317 316 316 315 316 315 315 315 316 316 316 317 318 318 318 319 321 324 326 329 330 331 332 333 333 333 331 334 325 331 332
334 333 330 329 329 325 323 321 321 320 318 317 315 315 315 315 315 315 314 314 314 315 316 316 317 317 317 317 317 318 320 324 327 329 332 332 332 333 332 334 331 332 331
333 331 329 328 327 324 321 321 319 318 316 314 315 315 315 314 313 313 313 313 314 315 315 316 316 316 316 316 316 316 316 317 322 327 329 332 331 332 331 334 332 331 328
331 329 328 327 325 323 322 320 319 317 314 314 314 313 311 309 308 310 310 310 313 314 315 315 315 315 315 315 316 316 316 315 311 320 326 328 331 331 332 333 331 330 328
330 328 327 326 322 321 321 319 317 314 313 313 310 306 305 304 303 302 303 311 312 313 313 314 314 314 314 315 315 315 315 315 313 312 317 325 328 330 331 331 332 329 328
329 328 327 325 321 319 318 316 313 309 309 306 306 306 305 303 301 303 304 307 310 311 312 312 312 313 313 313 312 311 307 307 311 313 312 317 324 327 330 331 331 329 327
329 328 327 324 321 320 317 313 309 305 304 306 306 306 305 305 306 306 304 303 304 306 308 310 311 311 310 308 308 306 306 307 310 311 310 311 317 323 328 330 330 330 328
328 327 326 323 321 319 317 311 307 304 305 307 308 307 306 307 307 306 304 303 305 307 307 310 311 307 309 311 311 311 309 310 313 313 312 310 309 316 325 329 330 328 329
327 326 324 322 320 317 313 311 310 308 310 310 309 308 307 307 305 306 307 308 310 309 310 311 311 311 311 312 312 312 311 311 312 312 312 311 310 308 319 328 330 330 330
327 325 323 321 319 315 311 310 309 310 311 310 309 307 308 307 307 308 310 311 311 311 312 312 312 311 312 312 312 312 312 312 312 312 312 312 310 308 315 325 329 329 329
327 325 322 320 317 314 311 309 310 311 311 310 308 307 308 307 308 310 311 311 311 312 311 310 310 311 312 312 312 312 313 314 314 313 314 313 310 305 314 322 327 329 328
326 324 322 319 316 313 311 310 311 311 310 308 307 307 307 307 309 311 311 311 311 311 311 312 312 311 311 312 312 313 314 315 316 316 316 317 317 307 310 320 327 329 328
326 324 322 319 316 312 312 311 311 311 309 307 307 307 306 308 310 311 311 312 312 311 312 313 312 312 312 312 312 313 314 315 316 316 317 318 319 312 310 320 325 328 328
325 324 322 319 315 312 312 311 311 310 308 307 307 307 306 308 309 311 311 311 311 311 312 313 313 313 314 314 313 313 313 315 316 316 316 317 314 309 319 324 324 326 328
325 324 322 318 315 313 312 311 310 308 307 307 307 307 307 308 309 311 311 311 310 311 312 312 312 313 313 314 313 312 313 314 315 316 317 319 322 321 324 325 323 321 324
324 323 321 317 315 313 312 310 309 308 307 306 307 306 307 308 309 310 311 310 310 312 312 313 312 314 314 314 313 312 313 314 315 317 318 321 321 322 324 319 320 320 319
323 323 320 317 315 312 310 309 308 307 306 306 307 307 308 308 309 310 311 311 310 312 312 313 313 313 314 314 313 312 312 313 315 317 319 322 323 325 324 322 320 321 323
321 322 320 316 314 311 309 309 308 308 307 307 307 306 308 308 309 310 311 311 310 312 313 313 313 314 313 314 315 314 314 313 313 318 321 321 322 322 322 322 322 323 324
320 321 319 316 312 310 309 309 309 308 307 307 307 307 307 308 308 308 311 311 310 312 313 313 313 314 314 314 314 316 317 314 312 313 317 319 320 321 321 321 321 322 322
318 320 317 314 311 310 309 307 306 306 305 306 306 307 307 307 308 308 310 311 311 312 313 313 312 314 314 315 314 315 318 315 311 310 313 316 317 319 317 319 319 319 318
318 318 315 313 310 309 308 307 307 306 306 306 307 307 306 307 308 308 310 311 310 311 313 313 312 314 314 316 316 315 315 314 313 313 310 312 314 315 317 316 317 316 316
317 316 314 311 310 308 307 308 307 306 305 306 307 307 307 307 307 307 310 311 310 311 313 312 312 314 314 315 316 316 314 313 312 312 313 310 309 311 313 314 314 313 314
316 315 313 311 309 308 308 307 306 304 305 307 306 306 307 308 308 307 309 310 310 311 312 311 312 313 314 315 315 316 317 315 312 310 307 305 306 305 309 312 313 313 314